Weather History for Anchorage Merrill, AK

Change the Weather History Date:

Thursday, October 9, 2014

  Actual Average Record
Temperature  
Mean Temperature 34 °F -  
Max Temperature 41 °F 42 °F 66 °F (2006)
Min Temperature 28 °F 29 °F 21 °F (2007)
Degree Days  
Heating Degree Days 32    
Moisture  
Dew Point 20 °F    
Average Humidity 56    
Maximum Humidity 75    
Minimum Humidity 46    
Precipitation  
Precipitation 0.00 in - - ()
Sea Level Pressure  
Sea Level Pressure 29.38 in    
Wind  
Wind Speed 8 mph (North)    
Max Wind Speed 14 mph    
Max Gust Speed 23 mph    
Visibility 10 miles    
Events      
Averages and records for this station are not official NWS values.
T = Trace of Precipitation, MM = Missing Value Source: NWS Daily Summary

Daily Weather History Graph

Daily Weather History Graph

Search for Another Location

Airport:

Trip Planner

Search our weather history database for the weather conditions in past years. The results will help you decide how hot, cold, wet, or windy it might be!

Date:

Astronomy

Oct. 09, 2014 Rise Set
Actual Time 8:26 AM AKDT 7:05 PM AKDT
Civil Twilight 7:43 AM AKDT 7:48 PM AKDT
Nautical Twilight 6:53 AM AKDT 8:38 PM AKDT
Astronomical Twilight 6:01 AM AKDT 9:29 PM AKDT
Moon 7:37 PM AKDT (10/9) 10:19 AM AKDT (10/9)
Length of Visible Light 12h 05m
Length of Day
10h 38m
Full, 97% of the Moon is Illuminated
Oct 9
Full
Oct 15
Last Quarter
Oct 23
New
Oct 30
First Quarter
Nov 6
Full

Hourly Weather History & Observations

Time (AKDT) Temp. Windchill Dew Point Humidity Pressure Visibility Wind Dir Wind Speed Gust Speed Precip Events Conditions
12:53 AM 32.0 °F 27.5 °F 25.0 °F 75% 29.77 in 10.0 mi NE 4.6 mph - N/A   Mostly Cloudy
1:53 AM 33.1 °F 26.9 °F 26.1 °F 75% 29.74 in 10.0 mi North 6.9 mph - N/A   Mostly Cloudy
2:53 AM 33.1 °F 26.9 °F 19.9 °F 59% 29.72 in 10.0 mi North 6.9 mph - N/A   Mostly Cloudy
3:53 AM 33.1 °F 26.1 °F 19.0 °F 56% 29.70 in 10.0 mi NNE 8.1 mph - N/A   Mostly Cloudy
4:53 AM 30.9 °F 24.3 °F 18.0 °F 59% 29.67 in 10.0 mi North 6.9 mph - N/A   Overcast
5:53 AM 28.9 °F 20.4 °F 18.0 °F 64% 29.63 in 10.0 mi North 9.2 mph - N/A   Scattered Clouds
6:53 AM 28.9 °F 19.8 °F 19.0 °F 67% 29.60 in 10.0 mi North 10.4 mph 17.3 mph N/A   Scattered Clouds
7:53 AM 28.0 °F 19.3 °F 18.0 °F 66% 29.57 in 10.0 mi North 9.2 mph - N/A   Clear
8:53 AM 28.0 °F 20.0 °F 17.1 °F 63% 29.53 in 10.0 mi North 8.1 mph - N/A   Clear
9:53 AM 28.9 °F 19.8 °F 17.1 °F 61% 29.50 in 10.0 mi North 10.4 mph - N/A   Clear
10:53 AM 30.9 °F 22.8 °F 16.0 °F 54% 29.48 in 10.0 mi North 9.2 mph - N/A   Scattered Clouds
11:53 AM 32.0 °F 24.2 °F 17.1 °F 54% 29.44 in 10.0 mi North 9.2 mph - N/A   Clear
12:53 PM 36.0 °F 27.5 °F 17.1 °F 46% 29.39 in 10.0 mi North 12.7 mph 20.7 mph N/A   Overcast
1:53 PM 36.0 °F 28.5 °F 18.0 °F 48% 29.34 in 10.0 mi North 10.4 mph - N/A   Mostly Cloudy
2:53 PM 37.0 °F 29.3 °F 19.0 °F 48% 29.29 in 10.0 mi North 11.5 mph - N/A   Scattered Clouds
3:53 PM 37.9 °F 32.1 °F 19.0 °F 47% 29.24 in 10.0 mi North 8.1 mph - N/A   Overcast
4:53 PM 39.0 °F 32.8 °F 19.9 °F 46% 29.19 in 10.0 mi North 9.2 mph 19.6 mph N/A   Overcast
5:53 PM 39.0 °F 32.8 °F 19.9 °F 46% 29.14 in 10.0 mi NNE 9.2 mph - N/A   Overcast
6:53 PM 39.0 °F 31.0 °F 19.9 °F 46% 29.09 in 10.0 mi North 13.8 mph 23.0 mph N/A   Overcast
7:53 PM 39.0 °F 31.0 °F 21.9 °F 50% 29.04 in 10.0 mi North 13.8 mph 23.0 mph N/A   Overcast
8:53 PM 39.9 °F 32.9 °F 21.9 °F 49% 29.02 in 10.0 mi North 11.5 mph - N/A   Overcast
9:53 PM 39.9 °F 33.4 °F 21.9 °F 49% 28.99 in 10.0 mi North 10.4 mph - N/A   Overcast
10:53 PM 37.9 °F 30.9 °F 26.1 °F 62% 28.99 in 10.0 mi North 10.4 mph - 0.00 in   Overcast
11:53 PM 37.0 °F 33.3 °F 26.1 °F 65% 28.98 in 10.0 mi North 4.6 mph - 0.00 in   Overcast